Regional Weather Roundup
Issued by NWS

Home | Current Version | Previous Version | Text Only | Print | Product List | Glossary Off
Versions: 1 2 3 4 5 6 7 8 9 10 11 12 13 14 15 16 17 18 19 20 21 22 23 24 25 26 27 28 29 30 31 32 33 34 35 36 37 38 39 40 41 42 43 44 45 46 47 48 49 50

000
ASUS43 KTOP 011608
RWRKS

WEATHER ROUNDUP FOR KANSAS
NATIONAL WEATHER SERVICE GOODLAND KS
1100 AM CDT WED OCT 01 2014

NOTE:  "FAIR" INDICATES FEW OR NO CLOUDS BELOW 12,000 FEET WITH NO
SIGNIFICANT WEATHER AND/OR OBSTRUCTIONS TO VISIBILITY.

KSZ001>006-013>018-027>032-041>047-011700-
NORTHWEST KANSAS

CITY           SKY/WX    TMP DP  RH WIND       PRES   REMARKS
GOODLAND       SUNNY     65  44  46 N10       29.87S
HAYS           CLOUDY    63  57  82 NE10      29.79S
HILL CITY      CLOUDY    65  59  81 NE3       29.81R
RUSSELL        CLOUDY    63  62  97 NE9       29.77S FOG
$$

KSZ061>065-074>080-084>089-011700-
SOUTHWEST KANSAS

CITY           SKY/WX    TMP DP  RH WIND       PRES   REMARKS
DODGE CITY     SUNNY     72  52  49 NE8       29.78S
GARDEN CITY    SUNNY     69  48  47 N13       29.80S
GREAT BEND     CLOUDY    63  59  88 N10       29.78R
LIBERAL        SUNNY     72  46  40 N13       29.81S
PRATT          SUNNY     73  59  60 W3        29.76S
$$

KSZ066>073-081>083-090>101-011700-
SOUTHEAST KANSAS

CITY           SKY/WX    TMP DP  RH WIND       PRES   REMARKS
CHANUTE        CLOUDY    74  69  85 S14       29.78S
COFFEYVILLE    MOSUNNY   78  68  71 S13       29.77S
HUTCHINSON     SUNNY     77  64  64 S9        29.74F
MEDICINE LODGE   N/A     76  62  62 SW6       29.72F
NEWTON         SUNNY     77  63  61 S13       29.77S
PARSONS        LGT RAIN  80  69  69 S15G22    29.79S
WICHITA INTL   MOSUNNY   80  63  55 S13       29.74R
WICHITA JABRA  SUNNY     79  63  57 S15       29.74S
WICHITA MCCONL MOSUNNY   79  65  63 S14       29.75S
WINFIELD       SUNNY     78  68  71 S12       29.76S
$$

KSZ007>012-019>026-033>040-048>060-102>105-011700-
NORTHEAST KANSAS

CITY           SKY/WX    TMP DP  RH WIND       PRES   REMARKS
CONCORDIA      CLOUDY    68  64  87 CALM      29.77S
EMPORIA        MOSUNNY   73  65  75 VRB6      29.76F
LAWRENCE       PTSUNNY   71  66  84 S7        29.77S
MANHATTAN      CLOUDY    77  67  71 VRB7      29.76R
MARYSVILLE     PTSUNNY   70  64  83 CALM      29.76S
OLATHE IND     LGT RAIN  70  68  93 S10       29.80R
OLATHE EXE     CLOUDY    69  66  90 S6        29.79R
SALINA         PTSUNNY   70  64  81 NW10      29.76S
TOPEKA BILLARD CLOUDY    72  67  84 SW7       29.77R
TOPEKA FORBES  CLOUDY    70  65  84 S9        29.77R
$$


USA.gov is the U.S. government's official web portal to all federal, state and local government web resources and services.